changsha , China , ASIA

  • Saturday
    May 26

    Light rain  Light rain

    82 °F  70 °F

    Northwest  Northwest

        

  • Sunday
    May 27

    Overcast  Cloudy

    81 °F  70 °F

    Northwest  Northwest

        

  • Monday
    May 28

    Cloudy  Cloudy

    88 °F  75 °F

    Northwest  Northwest

        

  • Tuesday
    May 29

    Shower  Shower

    88 °F  75 °F

    Northwest  Northwest

        

  • Wednesday
    May 30

    Shower  Shower

    77 °F  70 °F

    Northwest  Northwest

        

  • Thursday
    May 31

    Shower  Moderate rain

    75 °F  70 °F

    Northwest  Northwest

        

  • Friday
    June 1

    Moderate rain  Light rain

    73 °F  70 °F

    North  North

        

Date   Weather Temperature Humidity Total_rain Visibility Wind
11:00 Moderate rain 82°F 97.7% 3.3mm 999.9km Northwest  2.5m/s
14:00 Moderate rain 80°F 94.8% 4.7mm 999.9km Northwest  2.2m/s
17:00 Light rain 79°F 92.4% 1.3mm 999.9km Northwest  2.8m/s
20:00 Light rain 78°F 93.6% 0.2mm 999.9km Northwest  1.2m/s
23:00 Light rain 77°F 94.9% 0.1mm 999.9km Northwest  2.1m/s
02:00 Light rain 70°F 95.4% 0.6mm 999.9km Northwest  2.3m/s
05:00 Light rain 73°F 95.9% 0.9mm 999.9km Northwest  1.8m/s
08:00 Light rain 73°F 86.3% 0.2mm 999.9km Northwest  1.5m/s
11:00 Overcast 74°F 81.3% 0mm 999.9km Northwest  1.6m/s
14:00 Overcast 80°F 85.9% 0mm 999.9km Northwest  3.2m/s
17:00 Overcast 80°F 90.9% 0mm 999.9km Northwest  2.3m/s
20:00 Overcast 77°F 91.6% 0mm 999.9km Northwest  2.5m/s
23:00 Cloudy 74°F 96.3% 0mm 999.9km Northwest  1.3m/s
02:00 Cloudy 70°F 95.8% 0mm 999.9km Southwest  1.3m/s
05:00 Cloudy 71°F 95.1% 0mm 999.9km Northwest  0.7m/s
08:00 Cloudy 74°F 94.4% 0mm 999.9km Southeast  0.6m/s
11:00 Cloudy 84°F 70.7% 0mm 999.9km Northeast  1.2m/s
14:00 Cloudy 87°F 76.5% 0mm 999.9km Northwest  1.2m/s
17:00 Cloudy 85°F 79.1% 0mm 999.9km Southeast  2.0m/s
20:00 Cloudy 79°F 88.8% 0mm 999.9km Southwest  1.4m/s
23:00 Cloudy 76°F 97.7% 0mm 999.9km Northwest  1.0m/s
02:00 Cloudy 76°F 98.3% 0mm 999.9km Southeast  1.3m/s
05:00 Cloudy 76°F 98.8% 0mm 999.9km Northwest  1.6m/s
08:00 Cloudy 76°F 98.3% 0mm 999.9km Southwest  1.6m/s
11:00 Cloudy 82°F 75.2% 0mm 999.9km Northwest  1.0m/s
14:00 Shower 87°F 83.5% 0.1mm 999.9km Northeast  1.0m/s
17:00 Shower 86°F 88.4% 1.2mm 999.9km Northeast  2.5m/s
20:00 Cloudy 84°F 94.7% 0mm 999.9km Northeast  2.7m/s
23:00 Cloudy 81°F 99.8% 0mm 999.9km Southeast  2.0m/s
02:00 Cloudy 77°F 98.9% 0mm 999.9km Southeast  2.1m/s
05:00 Shower 77°F 88.5% 0.5mm 999.9km Northeast  1.4m/s
08:00 Shower 76°F 80.7% 0.5mm 999.9km Northeast  1.3m/s
11:00 Shower 74°F 84% 2.3mm 999.9km Northeast  2.6m/s
14:00 Shower 77°F 95.9% 1.8mm 999.9km Northeast  2.5m/s
17:00 Shower 76°F 95.6% 1.4mm 999.9km Northeast  2.6m/s
20:00 Shower 76°F 98.3% 2.5mm 999.9km North  1.3m/s
23:00 Shower 76°F 99.4% 0.4mm 999.9km Northwest  2.6m/s
02:00 Shower 70°F 99% 1.3mm 999.9km Northwest  2.2m/s
05:00 Shower 70°F 98.6% 0.1mm 999.9km Northwest  2.1m/s
08:00 Shower 72°F 84.6% 2.4mm 999.9km Northwest  2.0m/s
11:00 Shower 72°F 91.3% 7mm 999.9km Northeast  1.9m/s
14:00 Shower 75°F 93.1% 7.1mm 999.9km Northwest  2.2m/s
17:00 Shower 73°F 91.7% 0.3mm 999.9km Northwest  2.2m/s
20:00 Shower 72°F 90.3% 3.4mm 999.9km Southeast  1.1m/s
23:00 Moderate rain 72°F 97.6% 3.9mm 999.9km Northwest  2.0m/s
02:00 Moderate rain 70°F 96.8% 3.1mm 999.9km Northwest  2.8m/s
05:00 Overcast 70°F 95.5% 0mm 999.9km Northwest  0.9m/s
08:00 Light rain 72°F 94.2% 2.9mm 999.9km Northeast  1.9m/s
11:00 Overcast 72°F 80.9% 0mm 999.9km Northwest  2.3m/s
14:00 Moderate rain 73°F 84.8% 5.2mm 999.9km Northwest  1.7m/s
17:00 Overcast 73°F 88.6% 0mm 999.9km Northwest  2.2m/s
20:00 Moderate rain 71°F 91.5% 4.9mm 999.9km Northeast  2.0m/s
23:00 Light rain 70°F 92.6% 2.3mm 999.9km Northwest  2.0m/s
02:00 Light rain 70°F 92.4% 2.3mm 999.9km Northwest  2.1m/s
05:00 Light rain 70°F 93.2% 2.3mm 999.9km Northwest  2.0m/s